Project,Study,Ord_Occ,Event_Num,Cast_ID,Date_Time_UTC,Date_Time_PST,Lat_Dec,Lon_Dec,Sta_ID,Line,Sta,Depth,Pressure,PrQ,Temp1,Temp1Q,Temp2,Temp2Q,TempAve,Salt1,Salt1Q,Salt1_Corr,Salt2,Salt2Q,Salt2_Corr,SaltAve_Corr,Ox1,Ox1Q,Ox1_CruiseCorr,Ox1_StaCorr,Ox2,Ox2Q,Ox2_CruiseCorr,Ox2_StaCorr,OxAve_StaCorr,Ox1uM,Ox1uM_CruiseCorr,Ox1uM_StaCorr,Ox2uM,Ox2uM_CruiseCorr,Ox2uM_StaCorr,OxAveuM_StaCorr,FluorV,FluorQ,EstChl_CruiseCorr,EstChl_StaCorr,ISUSV,ISUSQ,EstNO3_CruiseCorr,EstNO3_StaCorr,SigThetaTS1,SigThetaTS1Q,SigThetaTS2,SigThetaTS2Q,BAT,XMiss,TransQ,pH,pHQ,SPAR,SPARQ,PAR,PARQ,PoT1,PoT2,DynHt,SVA,OxSat1,OxSat2,BTL_Depth,BTL_Temp,SaltB,OxB,OxBuM,Chl-a,Phaeo,NO3,NO2,NH4,PO4,SIL
CalCOFI,2007SR,069,71,2007_069d,26-Jul-2020 18:30:19,26-Jul-2020 10:30:19,34.45032,-120.52884,080.0 051.0,080.0,051.0,1.000,1.007,,12.9155,,12.9490,,12.9323,33.7016,,33.7018,33.7012,,33.7028,33.7023,4.5885,,4.7768,4.8129,3.8380,,5.2213,3.7802,4.2966,199.847,208.1322,137.2989,167.161,323.2524,131.9230,134.6110,0.1253,,1.0495,3.2598,-99.0,,-99.0,-99.0,25.4039,,25.3969,,1.0631,76.6624,,8.017,,2.1614E+03,,1.2458E+02,,12.9154,12.9489,0.0017,,76.654,64.161,1,12.933,33.7110,4.832,210.93,5.340,0.499,9.42,0.085,0.21,0.94,13.40
CalCOFI,2007SR,069,71,2007_069d,26-Jul-2020 18:30:38,26-Jul-2020 10:30:38,34.45032,-120.52884,080.0 051.0,080.0,051.0,2.000,2.014,,12.9503,,12.9005,,12.9254,33.7068,,33.7070,33.7068,,33.7084,33.7077,4.6781,,4.8704,4.9124,3.8686,,5.2943,3.8363,4.3744,203.747,212.2034,137.6119,168.491,332.7913,131.5623,134.5871,0.1271,,1.0708,3.3343,-99.0,,-99.0,-99.0,25.4010,,25.4109,,1.0676,76.5762,,8.038,,2.1691E+03,,9.5611E+01,,12.9500,12.9003,0.0070,,78.208,64.610,,,,,,,,,,,,
CalCOFI,2007SR,069,71,2007_069d,26-Jul-2020 18:30:38,26-Jul-2020 10:30:38,34.45032,-120.52884,080.0 051.0,080.0,051.0,3.000,3.022,,13.0179,,12.9906,,13.0043,33.7045,,33.7047,33.7051,,33.7067,33.7057,4.5968,,4.7855,4.8222,3.8621,,5.2788,3.8244,4.3233,200.212,208.5132,137.3282,168.212,324.1451,131.6380,134.4831,0.1137,,0.9128,2.7800,-99.0,,-99.0,-99.0,25.3859,,25.3917,,1.0882,76.1809,,8.044,,2.1500E+03,,7.6099E+01,,13.0175,12.9902,0.0093,,76.956,64.621,,,,,,,,,,,,
CalCOFI,2007SR,069,71,2007_069d,26-Jul-2020 18:30:40,26-Jul-2020 10:30:40,34.45032,-120.52884,080.0 051.0,080.0,051.0,4.000,4.029,,13.0013,,13.0000,,13.0007,33.7038,,33.7040,33.7038,,33.7054,33.7047,4.2856,,4.4603,4.4766,3.8838,,5.3306,3.8641,4.1704,186.654,194.3600,136.2403,169.157,290.9842,131.3817,133.8110,0.1372,,1.1899,3.7520,-99.0,,-99.0,-99.0,25.3886,,25.3889,,1.0926,76.0977,,8.041,,2.1840E+03,,6.5487E+01,,13.0008,12.9995,0.0119,,71.721,64.996,,,,,,,,,,,,
CalCOFI,2007SR,069,71,2007_069d,26-Jul-2020 18:30:42,26-Jul-2020 10:30:42,34.45032,-120.52884,080.0 051.0,080.0,051.0,5.000,5.036,,12.8530,,12.8507,,12.8519,33.6964,,33.6966,33.6902,,33.6918,33.6942,4.0994,,4.2658,4.2698,3.9053,,5.3819,3.9036,4.0867,178.542,185.8919,135.5893,170.089,271.1434,131.1290,133.3592,0.1193,,0.9788,3.0117,-99.0,,-99.0,-99.0,25.4122,,25.4079,,1.0507,76.9003,,8.033,,2.1907E+03,,5.4118E+01,,12.8523,12.8500,0.0145,,68.393,65.148,5,12.680,,, ,,,,,,,
CalCOFI,2007SR,069,71,2007_069d,26-Jul-2020 18:30:43,26-Jul-2020 10:30:43,34.45032,-120.52884,080.0 051.0,080.0,051.0,6.000,6.043,,12.4632,,12.5007,,12.4820,33.6982,,33.6984,33.6956,,33.6972,33.6978,3.9740,,4.1347,4.1306,3.9407,,5.4664,3.9684,4.0495,173.066,180.1755,135.1499,171.617,257.7499,130.7146,132.9323,0.1253,,1.0495,3.2598,-99.0,,-99.0,-99.0,25.4897,,25.4804,,1.0083,77.7196,,8.017,,2.2101E+03,,4.2475E+01,,12.4625,12.4999,0.0170,,65.768,65.264,,,,,,,,,,,,
CalCOFI,2007SR,069,71,2007_069d,26-Jul-2020 18:30:45,26-Jul-2020 10:30:45,34.45032,-120.52884,080.0 051.0,080.0,051.0,7.000,7.051,,12.2082,,12.2391,,12.2237,33.6968,,33.6970,33.6979,,33.6995,33.6983,3.8477,,4.0028,3.9903,3.9578,,5.5073,3.9998,3.9951,167.561,174.4288,134.7082,172.357,244.2854,130.5139,132.6111,0.1266,,1.0649,3.3136,-99.0,,-99.0,-99.0,25.5376,,25.5326,,0.9638,78.5901,,7.988,,2.1942E+03,,3.3759E+01,,12.2073,12.2381,0.0195,,63.339,65.194,,,,,,,,,,,,
CalCOFI,2007SR,069,71,2007_069d,26-Jul-2020 18:30:47,26-Jul-2020 10:30:47,34.45032,-120.52884,080.0 051.0,080.0,051.0,8.000,8.058,,12.0205,,12.0171,,12.0188,33.7029,,33.7031,33.7042,,33.7058,33.7045,3.7640,,3.9153,3.8974,3.9684,,5.5326,4.0192,3.9583,163.907,170.6144,134.4150,172.810,235.3483,130.3911,132.4031,0.1194,,0.9800,3.0158,-99.0,,-99.0,-99.0,25.5780,,25.5797,,0.9158,79.5365,,7.974,,2.1274E+03,,3.0133E+01,,12.0195,12.0161,0.0219,,61.719,65.068,,,,,,,,,,,,
CalCOFI,2007SR,069,71,2007_069d,26-Jul-2020 18:30:48,26-Jul-2020 10:30:48,34.45032,-120.52884,080.0 051.0,080.0,051.0,9.000,9.065,,11.9388,,11.9381,,11.9385,33.7011,,33.7013,33.7007,,33.7023,33.7018,3.6886,,3.8365,3.8137,3.9646,,5.5235,4.0123,3.9130,160.621,167.1842,134.1513,172.641,227.3112,130.4369,132.2941,0.1158,,0.9375,2.8669,-99.0,,-99.0,-99.0,25.5921,,25.5918,,0.8879,80.0935,,7.963,,2.1217E+03,,2.5320E+01,,11.9376,11.9370,0.0243,,60.379,64.896,,,,,,,,,,,,
CalCOFI,2007SR,069,71,2007_069d,26-Jul-2020 18:30:50,26-Jul-2020 10:30:50,34.45032,-120.52884,080.0 051.0,080.0,051.0,10.000,10.072,,11.8307,,11.8234,,11.8271,33.6973,,33.6975,33.6959,,33.6975,33.6975,3.6420,,3.7878,3.7619,3.9569,,5.5051,3.9981,3.8800,158.592,165.0661,133.9885,172.302,222.3485,130.5288,132.2587,0.1143,,0.9198,2.8049,-99.0,,-99.0,-99.0,25.6094,,25.6097,,0.8502,80.8521,,7.951,,1.9161E+03,,2.1750E+01,,11.8294,11.8221,0.0267,,59.480,64.612,10,11.622,33.7119,3.796,165.69,1.993,0.323,14.75,0.061,0.14,1.27,15.75
CalCOFI,2007SR,069,71,2007_069d,26-Jul-2020 18:30:52,26-Jul-2020 10:30:52,34.45032,-120.52884,080.0 051.0,080.0,051.0,11.000,11.080,,11.7086,,11.7141,,11.7114,33.6966,,33.6968,33.6967,,33.6983,33.6976,3.6218,,3.7667,3.7395,3.9474,,5.4824,3.9807,3.8601,157.709,164.1443,133.9176,171.883,220.1889,130.6425,132.2801,0.0873,,0.6018,1.6881,-99.0,,-99.0,-99.0,25.6316,,25.6307,,0.8270,81.3215,,7.946,,1.8569E+03,,1.9098E+01,,11.7072,11.7127,0.0291,,58.997,64.308,,,,,,,,,,,,
CalCOFI,2007SR,069,71,2007_069d,26-Jul-2020 18:30:53,26-Jul-2020 10:30:53,34.45032,-120.52884,080.0 051.0,080.0,051.0,12.000,12.087,,11.6906,,11.6904,,11.6905,33.6962,,33.6964,33.6973,,33.6989,33.6977,3.5949,,3.7386,3.7096,3.9353,,5.4535,3.9585,3.8341,156.536,162.9198,133.8235,171.357,217.3199,130.7851,132.3043,0.1077,,0.8421,2.5319,-99.0,,-99.0,-99.0,25.6347,,25.6356,,0.8194,81.4770,,7.942,,1.9629E+03,,1.5128E+01,,11.6891,11.6889,0.0315,,58.537,64.079,,,,,,,,,,,,
CalCOFI,2007SR,069,71,2007_069d,26-Jul-2020 18:30:54,26-Jul-2020 10:30:54,34.45032,-120.52884,080.0 051.0,080.0,051.0,13.000,13.094,,11.6665,,11.6637,,11.6651,33.6957,,33.6959,33.6966,,33.6982,33.6971,3.5678,,3.7103,3.6795,3.9265,,5.4325,3.9424,3.8110,155.355,161.6870,133.7287,170.973,214.4313,130.8893,132.3090,0.1101,,0.8703,2.6311,-99.0,,-99.0,-99.0,25.6388,,25.6400,,0.8144,81.5798,,7.941,,2.0050E+03,,1.3597E+01,,11.6649,11.6620,0.0338,,58.066,63.900,,,,,,,,,,,,
CalCOFI,2007SR,069,71,2007_069d,26-Jul-2020 18:30:55,26-Jul-2020 10:30:55,34.45032,-120.52884,080.0 051.0,080.0,051.0,14.000,14.102,,11.6295,,11.6267,,11.6281,33.6940,,33.6942,33.6951,,33.6967,33.6955,3.5524,,3.6942,3.6624,3.9122,,5.3984,3.9162,3.7893,154.683,160.9855,133.6748,170.351,212.7877,131.0579,132.3664,0.1022,,0.7773,2.3044,-99.0,,-99.0,-99.0,25.6444,,25.6457,,0.8032,81.8082,,7.937,,2.0252E+03,,1.1123E+01,,11.6277,11.6250,0.0362,,57.769,63.617,,,,,,,,,,,,
CalCOFI,2007SR,069,71,2007_069d,26-Jul-2020 18:30:57,26-Jul-2020 10:30:57,34.45032,-120.52884,080.0 051.0,080.0,051.0,15.000,15.109,,11.5644,,11.5660,,11.5652,33.6944,,33.6946,33.6949,,33.6965,33.6956,3.5504,,3.6921,3.6602,3.8978,,5.3640,3.8898,3.7750,154.596,160.8947,133.6678,169.723,212.5749,131.2282,132.4480,0.1066,,0.8291,2.4864,-99.0,,-99.0,-99.0,25.6568,,25.6568,,0.7863,82.1546,,7.933,,2.1122E+03,,1.0555E+01,,11.5626,11.5641,0.0386,,57.658,63.302,,,,,,,,,,,,
CalCOFI,2007SR,069,71,2007_069d,26-Jul-2020 18:30:58,26-Jul-2020 10:30:58,34.45032,-120.52884,080.0 051.0,080.0,051.0,16.000,16.116,,11.5515,,11.5524,,11.5520,33.6957,,33.6959,33.6970,,33.6986,33.6973,3.5462,,3.6877,3.6555,3.8820,,5.3263,3.8608,3.7582,154.412,160.7026,133.6530,169.031,212.1249,131.4159,132.5345,0.0951,,0.6936,2.0107,-99.0,,-99.0,-99.0,25.6602,,25.6610,,0.7872,82.1363,,7.933,,2.1800E+03,,9.9804E+00,,11.5495,11.5504,0.0409,,57.574,63.027,,,,,,,,,,,,
CalCOFI,2007SR,069,71,2007_069d,26-Jul-2020 18:30:59,26-Jul-2020 10:30:59,34.45032,-120.52884,080.0 051.0,080.0,051.0,17.000,17.124,,11.5473,,11.5482,,11.5478,33.6963,,33.6965,33.6974,,33.6990,33.6978,3.5400,,3.6812,3.6486,3.8689,,5.2950,3.8368,3.7427,154.143,160.4218,133.6315,168.463,211.4669,131.5699,132.6007,0.0994,,0.7443,2.1886,-99.0,,-99.0,-99.0,25.6614,,25.6621,,0.7865,82.1507,,7.933,,2.1937E+03,,9.9954E+00,,11.5452,11.5460,0.0432,,57.469,62.810,,,,,,,,,,,,
CalCOFI,2007SR,069,71,2007_069d,26-Jul-2020 18:31:01,26-Jul-2020 10:31:01,34.45032,-120.52884,080.0 051.0,080.0,051.0,18.000,18.131,,11.5386,,11.5333,,11.5360,33.6958,,33.6960,33.6964,,33.6980,33.6970,3.5335,,3.6745,3.6414,3.8577,,5.2683,3.8163,3.7289,153.859,160.1253,133.6087,167.973,210.7723,131.7028,132.6558,0.1043,,0.8020,2.3912,-99.0,,-99.0,-99.0,25.6626,,25.6641,,0.7864,82.1526,,7.931,,2.1778E+03,,9.2136E+00,,11.5364,11.5310,0.0456,,57.353,62.607,,,,,,,,,,,,
CalCOFI,2007SR,069,71,2007_069d,26-Jul-2020 18:31:02,26-Jul-2020 10:31:02,34.45032,-120.52884,080.0 051.0,080.0,051.0,19.000,19.138,,11.5113,,11.5096,,11.5105,33.6962,,33.6964,33.6975,,33.6991,33.6978,3.5253,,3.6659,3.6323,3.8457,,5.2396,3.7943,3.7133,153.499,159.7495,133.5798,167.450,209.8918,131.8446,132.7122,0.1033,,0.7902,2.3499,-99.0,,-99.0,-99.0,25.6680,,25.6693,,0.7862,82.1567,,7.929,,2.1699E+03,,8.6352E+00,,11.5089,11.5072,0.0479,,57.186,62.382,,,,,,,,,,,,
CalCOFI,2007SR,069,71,2007_069d,26-Jul-2020 18:31:04,26-Jul-2020 10:31:04,34.45032,-120.52884,080.0 051.0,080.0,051.0,20.000,20.145,,11.4854,,11.4890,,11.4872,33.6968,,33.6970,33.6978,,33.6994,33.6982,3.4909,,3.6299,3.5941,3.8306,,5.2036,3.7666,3.6804,152.002,158.1868,133.4597,166.791,206.2303,132.0233,132.7415,0.1074,,0.8385,2.5195,-99.0,,-99.0,-99.0,25.6732,,25.6734,,0.7878,82.1240,,7.928,,2.1926E+03,,7.9306E+00,,11.4829,11.4865,0.0502,,56.597,62.109,20,11.180,33.7095,3.550,154.95,0.792,0.324,16.67,0.038,0.00,1.38,16.86
CalCOFI,2007SR,069,71,2007_069d,26-Jul-2020 18:31:06,26-Jul-2020 10:31:06,34.45032,-120.52884,080.0 051.0,080.0,051.0,21.000,21.153,,11.4501,,11.4504,,11.4503,33.6986,,33.6988,33.6995,,33.7011,33.7000,3.4199,,3.5558,3.5153,3.8230,,5.1854,3.7527,3.6340,148.909,154.9580,133.2115,166.462,198.6653,132.1126,132.6621,0.0907,,0.6418,1.8287,-99.0,,-99.0,-99.0,25.6812,,25.6818,,0.7836,82.2085,,7.926,,2.1988E+03,,7.3723E+00,,11.4474,11.4478,0.0526,,55.405,61.937,,,,,,,,,,,,
CalCOFI,2007SR,069,71,2007_069d,26-Jul-2020 18:31:07,26-Jul-2020 10:31:07,34.45032,-120.52884,080.0 051.0,080.0,051.0,22.000,22.160,,11.3732,,11.3730,,11.3731,33.7007,,33.7009,33.7007,,33.7023,33.7016,3.3427,,3.4751,3.4295,3.8188,,5.1754,3.7450,3.5873,145.545,151.4463,132.9415,166.273,190.4374,132.1638,132.5527,0.0833,,0.5547,1.5226,-99.0,,-99.0,-99.0,25.6968,,25.6969,,0.7677,82.5365,,7.919,,2.1996E+03,,6.7765E+00,,11.3704,11.3703,0.0549,,54.067,61.767,,,,,,,,,,,,
CalCOFI,2007SR,069,71,2007_069d,26-Jul-2020 18:31:09,26-Jul-2020 10:31:09,34.45032,-120.52884,080.0 051.0,080.0,051.0,23.000,23.167,,11.2491,,11.2357,,11.2424,33.7049,,33.7051,33.7053,,33.7069,33.7060,3.3148,,3.4459,3.3986,3.8162,,5.1692,3.7402,3.5694,144.328,150.1759,132.8439,166.157,187.4608,132.1953,132.5196,0.0710,,0.4100,1.0139,-99.0,,-99.0,-99.0,25.7227,,25.7255,,0.7388,83.1352,,7.910,,2.1947E+03,,6.3328E+00,,11.2463,11.2329,0.0572,,53.477,61.547,,,,,,,,,,,,
CalCOFI,2007SR,069,71,2007_069d,26-Jul-2020 18:31:10,26-Jul-2020 10:31:10,34.45032,-120.52884,080.0 051.0,080.0,051.0,24.000,24.175,,11.1277,,11.1129,,11.1203,33.7102,,33.7104,33.7096,,33.7112,33.7108,3.3022,,3.4328,3.3846,3.8125,,5.1604,3.7335,3.5591,143.773,149.5965,132.7993,165.990,186.1034,132.2406,132.5200,0.0620,,0.3042,0.6416,-99.0,,-99.0,-99.0,25.7488,,25.7509,,0.7315,83.2875,,7.902,,2.1956E+03,,6.0266E+00,,11.1247,11.1099,0.0594,,53.137,61.328,,,,,,,,,,,,
CalCOFI,2007SR,069,71,2007_069d,26-Jul-2020 18:31:12,26-Jul-2020 10:31:12,34.45032,-120.52884,080.0 051.0,080.0,051.0,25.000,25.182,,11.0670,,11.0654,,11.0662,33.7118,,33.7120,33.7134,,33.7150,33.7135,3.2695,,3.3986,3.3483,3.7976,,5.1248,3.7061,3.5272,142.351,148.1121,132.6852,165.340,182.6254,132.4168,132.5510,0.0691,,0.3877,0.9353,-99.0,,-99.0,-99.0,25.7610,,25.7625,,0.7374,83.1643,,7.898,,2.1919E+03,,5.6023E+00,,11.0640,11.0623,0.0617,,52.544,61.028,,,,,,,,,,,,
CalCOFI,2007SR,069,71,2007_069d,26-Jul-2020 18:31:14,26-Jul-2020 10:31:14,34.45032,-120.52884,080.0 051.0,080.0,051.0,26.000,26.189,,11.0041,,11.0025,,11.0033,33.7078,,33.7080,33.7082,,33.7098,33.7089,3.2406,,3.3684,3.3162,3.7878,,5.1014,3.6882,3.5022,141.088,146.7937,132.5839,164.915,179.5363,132.5321,132.5580,0.0607,,0.2889,0.5878,-99.0,,-99.0,-99.0,25.7691,,25.7697,,0.7553,82.7933,,7.894,,2.1874E+03,,5.3421E+00,,11.0009,10.9994,0.0639,,52.007,60.788,,,,,,,,,,,,
CalCOFI,2007SR,069,71,2007_069d,26-Jul-2020 18:31:15,26-Jul-2020 10:31:15,34.45032,-120.52884,080.0 051.0,080.0,051.0,27.000,27.197,,10.9359,,10.9320,,10.9340,33.7116,,33.7118,33.7129,,33.7145,33.7132,3.2048,,3.3310,3.2764,3.7800,,5.0828,3.6739,3.4752,139.527,145.1641,132.4586,164.570,175.7183,132.6256,132.5421,0.0635,,0.3219,0.7037,-99.0,,-99.0,-99.0,25.7843,,25.7860,,0.7558,82.7827,,7.889,,2.1908E+03,,5.1125E+00,,10.9327,10.9288,0.0662,,51.359,60.573,,,,,,,,,,,,
CalCOFI,2007SR,069,71,2007_069d,26-Jul-2020 18:31:17,26-Jul-2020 10:31:17,34.45032,-120.52884,080.0 051.0,080.0,051.0,28.000,28.204,,10.8719,,10.8591,,10.8655,33.7214,,33.7216,33.7242,,33.7258,33.7237,3.1779,,3.3029,3.2465,3.7708,,5.0608,3.6570,3.4518,138.356,143.9417,132.3647,164.168,172.8542,132.7346,132.5497,0.0559,,0.2325,0.3893,-99.0,,-99.0,-99.0,25.8033,,25.8077,,0.7412,83.0863,,7.886,,2.1648E+03,,4.9088E+00,,10.8685,10.8557,0.0684,,50.862,60.336,,,,,,,,,,,,
CalCOFI,2007SR,069,71,2007_069d,26-Jul-2020 18:31:18,26-Jul-2020 10:31:18,34.45032,-120.52884,080.0 051.0,080.0,051.0,29.000,29.212,,10.8042,,10.7981,,10.8012,33.7354,,33.7356,33.7380,,33.7396,33.7376,3.1665,,3.2910,3.2339,3.7602,,5.0355,3.6376,3.4358,137.854,143.4177,132.3244,163.704,171.6263,132.8605,132.5925,0.0518,,0.1844,0.2197,-99.0,,-99.0,-99.0,25.8262,,25.8294,,0.7270,83.3804,,7.881,,2.1765E+03,,4.6698E+00,,10.8007,10.7946,0.0706,,50.610,60.094,,,,,,,,,,,,
CalCOFI,2007SR,069,71,2007_069d,26-Jul-2020 18:31:20,26-Jul-2020 10:31:20,34.45032,-120.52884,080.0 051.0,080.0,051.0,30.000,30.219,,10.7622,,10.7619,,10.7621,33.7418,,33.7420,33.7437,,33.7453,33.7437,3.1544,,3.2783,3.2204,3.7467,,5.0033,3.6128,3.4166,137.327,142.8676,132.2821,163.113,170.3374,133.0208,132.6515,0.0563,,0.2372,0.4059,-99.0,,-99.0,-99.0,25.8387,,25.8402,,0.7239,83.4445,,7.879,,2.1884E+03,,4.3846E+00,,10.7586,10.7583,0.0728,,50.374,59.833,30,10.700,33.7471,3.076,134.27,0.215,0.234,19.06,0.025,0.12,1.54,19.31
CalCOFI,2007SR,069,71,2007_069d,26-Jul-2020 18:31:21,26-Jul-2020 10:31:21,34.45032,-120.52884,080.0 051.0,080.0,051.0,31.000,31.226,,10.7395,,10.7399,,10.7397,33.7456,,33.7458,33.7474,,33.7490,33.7474,3.1360,,3.2591,3.2000,3.7308,,4.9653,3.5837,3.3919,136.527,142.0324,132.2179,162.417,168.3807,133.2095,132.7137,0.0538,,0.2079,0.3024,-99.0,,-99.0,-99.0,25.8456,,25.8470,,0.7246,83.4313,,7.876,,2.1865E+03,,4.1873E+00,,10.7358,10.7362,0.0749,,50.058,59.551,,,,,,,,,,,,
CalCOFI,2007SR,069,71,2007_069d,26-Jul-2020 18:31:23,26-Jul-2020 10:31:23,34.45032,-120.52884,080.0 051.0,080.0,051.0,32.000,32.234,,10.7081,,10.7077,,10.7079,33.7502,,33.7504,33.7514,,33.7530,33.7517,3.1195,,3.2419,3.1817,3.7201,,4.9398,3.5641,3.3729,135.804,141.2777,132.1599,161.950,166.6123,133.3361,132.7480,0.0568,,0.2431,0.4265,-99.0,,-99.0,-99.0,25.8547,,25.8558,,0.7257,83.4078,,7.875,,2.1668E+03,,3.9598E+00,,10.7043,10.7039,0.0771,,49.761,59.341,,,,,,,,,,,,
CalCOFI,2007SR,069,71,2007_069d,26-Jul-2020 18:31:25,26-Jul-2020 10:31:25,34.45032,-120.52884,080.0 051.0,080.0,051.0,33.000,33.241,,10.6756,,10.6690,,10.6723,33.7546,,33.7548,33.7570,,33.7586,33.7567,3.1086,,3.2305,3.1696,3.7059,,4.9059,3.5381,3.3539,135.330,140.7829,132.1218,161.332,165.4530,133.5037,132.8128,0.0500,,0.1632,0.1453,-99.0,,-99.0,-99.0,25.8639,,25.8669,,0.7266,83.3897,,7.873,,2.1514E+03,,3.7617E+00,,10.6717,10.6651,0.0793,,49.554,59.068,,,,,,,,,,,,
CalCOFI,2007SR,069,71,2007_069d,26-Jul-2020 18:31:27,26-Jul-2020 10:31:27,34.45032,-120.52884,080.0 051.0,080.0,051.0,34.000,34.249,,10.6523,,10.6456,,10.6490,33.7585,,33.7587,33.7605,,33.7621,33.7604,3.0987,,3.2201,3.1586,3.6932,,4.8756,3.5148,3.3367,134.900,140.3340,132.0873,160.778,164.4013,133.6540,132.8707,0.0488,,0.1491,0.0956,-99.0,,-99.0,-99.0,25.8710,,25.8738,,0.7284,83.3513,,7.870,,2.0728E+03,,3.5825E+00,,10.6482,10.6415,0.0814,,49.373,58.837,,,,,,,,,,,,
CalCOFI,2007SR,069,71,2007_069d,26-Jul-2020 18:31:28,26-Jul-2020 10:31:28,34.45032,-120.52884,080.0 051.0,080.0,051.0,35.000,35.256,,10.6346,,10.6298,,10.6322,33.7611,,33.7613,33.7631,,33.7647,33.7630,3.0893,,3.2103,3.1482,3.6835,,4.8524,3.4970,3.3226,134.487,139.9029,132.0542,160.356,163.3911,133.7684,132.9113,0.0563,,0.2372,0.4059,-99.0,,-99.0,-99.0,25.8762,,25.8786,,0.7311,83.2956,,7.869,,2.0971E+03,,3.4336E+00,,10.6305,10.6257,0.0835,,49.205,58.665,,,,,,,,,,,,
CalCOFI,2007SR,069,71,2007_069d,26-Jul-2020 18:31:29,26-Jul-2020 10:31:29,34.45032,-120.52884,080.0 051.0,080.0,051.0,36.000,36.263,,10.6191,,10.6156,,10.6174,33.7625,,33.7627,33.7641,,33.7657,33.7642,3.0876,,3.2085,3.1463,3.6694,,4.8188,3.4712,3.3088,134.414,139.8267,132.0483,159.742,163.2126,133.9349,132.9916,0.0491,,0.1526,0.1080,-99.0,,-99.0,-99.0,25.8800,,25.8819,,0.7324,83.2693,,7.867,,2.0897E+03,,3.3037E+00,,10.6148,10.6113,0.0857,,49.162,58.422,,,,,,,,,,,,
CalCOFI,2007SR,069,71,2007_069d,26-Jul-2020 18:31:31,26-Jul-2020 10:31:31,34.45032,-120.52884,080.0 051.0,080.0,051.0,37.000,37.271,,10.6048,,10.6030,,10.6039,33.7641,,33.7643,33.7659,,33.7675,33.7659,3.0845,,3.2053,3.1428,3.6612,,4.7992,3.4561,3.2995,134.278,139.6847,132.0374,159.384,162.8800,134.0320,133.0347,0.0476,,0.1350,0.0460,-99.0,,-99.0,-99.0,25.8838,,25.8855,,0.7346,83.2240,,7.866,,2.0499E+03,,3.1873E+00,,10.6005,10.5987,0.0878,,49.098,58.277,,,,,,,,,,,,
CalCOFI,2007SR,069,71,2007_069d,26-Jul-2020 18:31:33,26-Jul-2020 10:31:33,34.45032,-120.52884,080.0 051.0,080.0,051.0,38.000,38.278,,10.5989,,10.5988,,10.5989,33.7646,,33.7648,33.7663,,33.7679,33.7664,3.0847,,3.2055,3.1430,3.6420,,4.7533,3.4209,3.2820,134.287,139.6941,132.0381,158.549,162.9020,134.2584,133.1483,0.0488,,0.1491,0.0956,-99.0,,-99.0,-99.0,25.8852,,25.8866,,0.7373,83.1660,,7.866,,2.0490E+03,,3.0908E+00,,10.5944,10.5943,0.0899,,49.095,57.966,,,,,,,,,,,,
CalCOFI,2007SR,069,71,2007_069d,26-Jul-2020 18:31:35,26-Jul-2020 10:31:35,34.45032,-120.52884,080.0 051.0,080.0,051.0,39.000,39.286,,10.5964,,10.5938,,10.5951,33.7654,,33.7656,33.7668,,33.7684,33.7670,3.0794,,3.2000,3.1372,3.6283,,4.7206,3.3958,3.2665,134.055,139.4519,132.0195,157.952,162.3345,134.4203,133.2199,0.0497,,0.1597,0.1329,-99.0,,-99.0,-99.0,25.8863,,25.8879,,0.7363,83.1885,,7.866,,2.1648E+03,,2.9908E+00,,10.5918,10.5892,0.0921,,49.009,57.742,,,,,,,,,,,,
CalCOFI,2007SR,069,71,2007_069d,26-Jul-2020 18:31:37,26-Jul-2020 10:31:37,34.45032,-120.52884,080.0 051.0,080.0,051.0,40.000,40.293,,10.5909,,10.5887,,10.5898,33.7660,,33.7662,33.7677,,33.7693,33.7678,3.0796,,3.2002,3.1374,3.6150,,4.6889,3.3714,3.2544,134.066,139.4634,132.0204,157.374,162.3614,134.5771,133.2988,0.0515,,0.1808,0.2073,-99.0,,-99.0,-99.0,25.8878,,25.8895,,0.7372,83.1690,,7.866,,2.2102E+03,,2.9149E+00,,10.5862,10.5840,0.0942,,49.007,57.525,,,,,,,,,,,,
CalCOFI,2007SR,069,71,2007_069d,26-Jul-2020 18:31:38,26-Jul-2020 10:31:38,34.45032,-120.52884,080.0 051.0,080.0,051.0,41.000,41.300,,10.5893,,10.5872,,10.5883,33.7664,,33.7666,33.7682,,33.7698,33.7682,3.0711,,3.1913,3.1279,3.6061,,4.6676,3.3551,3.2415,133.695,139.0761,131.9906,156.984,161.4540,134.6828,133.3367,0.0500,,0.1632,0.1453,-99.0,,-99.0,-99.0,25.8884,,25.8901,,0.7384,83.1427,,7.866,,2.2090E+03,,2.8452E+00,,10.5844,10.5823,0.0963,,48.870,57.381,41,10.585,33.7710,3.164,138.08,0.213,0.203,19.84,0.026,0.10,1.60,20.58
CalCOFI,2007SR,069,71,2007_069d,26-Jul-2020 18:31:40,26-Jul-2020 10:31:40,34.45032,-120.52884,080.0 051.0,080.0,051.0,42.000,42.308,,10.5881,,10.5864,,10.5873,33.7666,,33.7668,33.7683,,33.7699,33.7684,3.0651,,3.1850,3.1213,3.5964,,4.6445,3.3373,3.2293,133.431,138.8005,131.9695,156.560,160.8083,134.7978,133.3837,0.0503,,0.1667,0.1577,-99.0,,-99.0,-99.0,25.8888,,25.8904,,0.7389,83.1346,,7.866,,2.1916E+03,,2.7637E+00,,10.5832,10.5814,0.0985,,48.772,57.225,,,,,,,,,,,,
CalCOFI,2007SR,069,71,2007_069d,26-Jul-2020 18:31:42,26-Jul-2020 10:31:42,34.45032,-120.52884,080.0 051.0,080.0,051.0,43.000,43.315,,10.5795,,10.5782,,10.5789,33.7681,,33.7683,33.7696,,33.7712,33.7698,3.0619,,3.1817,3.1177,3.5868,,4.6216,3.3197,3.2187,133.293,138.6565,131.9584,156.145,160.4708,134.9104,133.4344,0.0507,,0.1714,0.1742,-99.0,,-99.0,-99.0,25.8915,,25.8929,,0.7389,83.1334,,7.863,,2.1866E+03,,2.6874E+00,,10.5744,10.5731,0.1006,,48.713,57.064,,,,,,,,,,,,
CalCOFI,2007SR,069,71,2007_069d,26-Jul-2020 18:31:44,26-Jul-2020 10:31:44,34.45032,-120.52884,080.0 051.0,080.0,051.0,44.000,44.323,,10.5733,,10.5719,,10.5726,33.7697,,33.7699,33.7713,,33.7729,33.7714,3.0574,,3.1770,3.1127,3.5744,,4.5920,3.2970,3.2049,133.098,138.4529,131.9427,155.603,159.9938,135.0573,133.5000,0.0490,,0.1515,0.1039,-99.0,,-99.0,-99.0,25.8938,,25.8953,,0.7397,83.1163,,7.861,,2.1809E+03,,2.6108E+00,,10.5681,10.5667,0.1027,,48.636,56.859,,,,,,,,,,,,
CalCOFI,2007SR,069,71,2007_069d,26-Jul-2020 18:31:46,26-Jul-2020 10:31:46,34.45032,-120.52884,080.0 051.0,080.0,051.0,45.000,45.330,,10.5699,,10.5674,,10.5687,33.7702,,33.7704,33.7720,,33.7736,33.7720,3.0490,,3.1682,3.1034,3.5639,,4.5669,3.2778,3.1906,132.731,138.0698,131.9133,155.148,159.0962,135.1807,133.5470,0.0532,,0.2008,0.2776,-99.0,,-99.0,-99.0,25.8948,,25.8966,,0.7397,83.1170,,7.861,,2.1761E+03,,2.5252E+00,,10.5645,10.5621,0.1048,,48.498,56.687,,,,,,,,,,,,
CalCOFI,2007SR,069,71,2007_069d,26-Jul-2020 18:31:47,26-Jul-2020 10:31:47,34.45032,-120.52884,080.0 051.0,080.0,051.0,46.000,46.338,,10.5572,,10.5559,,10.5566,33.7727,,33.7729,33.7741,,33.7757,33.7743,3.0451,,3.1641,3.0991,3.5560,,4.5480,3.2633,3.1812,132.561,137.8923,131.8996,154.803,158.6804,135.2743,133.5870,0.0480,,0.1397,0.0625,-99.0,,-99.0,-99.0,25.8990,,25.9003,,0.7407,83.0961,,7.861,,2.1786E+03,,2.4618E+00,,10.5517,10.5504,0.1069,,48.424,56.548,,,,,,,,,,,,
CalCOFI,2007SR,069,71,2007_069d,26-Jul-2020 18:31:49,26-Jul-2020 10:31:49,34.45032,-120.52884,080.0 051.0,080.0,051.0,47.000,47.345,,10.5517,,10.5516,,10.5517,33.7739,,33.7741,33.7755,,33.7771,33.7756,3.0467,,3.1658,3.1009,3.5460,,4.5242,3.2450,3.1730,132.631,137.9654,131.9053,154.367,158.8516,135.3925,133.6489,0.0513,,0.1785,0.1990,-99.0,,-99.0,-99.0,25.9009,,25.9021,,0.7409,83.0916,,7.861,,2.1739E+03,,2.3929E+00,,10.5462,10.5460,0.1091,,48.444,56.384,,,,,,,,,,,,
CalCOFI,2007SR,069,71,2007_069d,26-Jul-2020 18:31:51,26-Jul-2020 10:31:51,34.45032,-120.52884,080.0 051.0,080.0,051.0,48.000,48.352,,10.5516,,10.5511,,10.5514,33.7741,,33.7743,33.7755,,33.7771,33.7757,3.0458,,3.1649,3.0999,3.5362,,4.5008,3.2270,3.1635,132.590,137.9226,131.9020,153.939,158.7514,135.5086,133.7053,0.0492,,0.1538,0.1122,-99.0,,-99.0,-99.0,25.9011,,25.9023,,0.7414,83.0806,,7.861,,2.1684E+03,,2.3315E+00,,10.5460,10.5454,0.1112,,48.429,56.227,,,,,,,,,,,,
CalCOFI,2007SR,069,71,2007_069d,26-Jul-2020 18:31:54,26-Jul-2020 10:31:54,34.45032,-120.52884,080.0 051.0,080.0,051.0,49.000,49.360,,10.5515,,10.5505,,10.5510,33.7745,,33.7747,33.7761,,33.7777,33.7762,3.0353,,3.1539,3.0882,3.5243,,4.4724,3.2052,3.1467,132.135,137.4476,131.8654,153.423,157.6385,135.6485,133.7570,0.0480,,0.1397,0.0625,-99.0,,-99.0,-99.0,25.9015,,25.9029,,0.7411,83.0882,,7.860,,2.1674E+03,,2.2622E+00,,10.5457,10.5447,0.1133,,48.263,56.038,,,,,,,,,,,,